| time (UTC) | temp C | wind direction | speed KPH | gust KPH | rain 1hr cm | rain 24hr cm | rain mn cm | humidity % | barometer mb |
| 20260510221236 | 12 | 0.0 | 0.0 | 0.00 | 0.00 | 0.00 | 69 | 948.0 | |
| 20260510220936 | 12 | 0.0 | 0.0 | 0.00 | 0.00 | 0.00 | 69 | 948.0 | |
| 20260510220636 | 12 | 0.0 | 0.0 | 0.00 | 0.00 | 0.00 | 69 | 948.0 | |
| 20260510220036 | 12 | 0.0 | 0.0 | 0.00 | 0.00 | 0.00 | 69 | 948.1 | |
| 20260510215135 | 12 | 0.0 | 0.0 | 0.00 | 0.00 | 0.00 | 67 | 948.0 | |
| 20260510214836 | 12 | 0.0 | 0.0 | 0.00 | 0.00 | 0.00 | 67 | 948.0 | |
| 20260510214535 | 12 | 0.0 | 0.0 | 0.00 | 0.00 | 0.00 | 67 | 948.0 | |
| 20260510214236 | 12 | 0.0 | 0.0 | 0.00 | 0.00 | 0.00 | 67 | 948.0 | |
| 20260510213936 | 12 | 0.0 | 0.0 | 0.00 | 0.00 | 0.00 | 67 | 948.0 | |
| 20260510213636 | 12 | 0.0 | 0.0 | 0.00 | 0.00 | 0.00 | 67 | 948.0 | |
| 20260510213335 | 12 | 0.0 | 0.0 | 0.00 | 0.00 | 0.00 | 66 | 947.0 | |
| 20260510213035 | 12 | 0.0 | 0.0 | 0.00 | 0.00 | 0.00 | 66 | 947.0 | |
| 20260510212736 | 12 | 0.0 | 0.0 | 0.00 | 0.00 | 0.00 | 66 | 947.0 | |
| 20260510212135 | 12 | 0.0 | 0.0 | 0.00 | 0.00 | 0.00 | 66 | 947.0 | |
| 20260510211535 | 12 | 0.0 | 0.0 | 0.00 | 0.00 | 0.00 | 66 | 947.0 | |
| 20260510211235 | 12 | 0.0 | 0.0 | 0.00 | 0.00 | 0.00 | 66 | 947.0 | |
| 20260510210636 | 12 | 0.0 | 0.0 | 0.00 | 0.00 | 0.00 | 66 | 947.0 | |
| 20260510210336 | 13 | 0.0 | 0.0 | 0.00 | 0.00 | 0.00 | 65 | 947.9 | |
| 20260510210036 | 13 | 0.0 | 0.0 | 0.00 | 0.00 | 0.00 | 65 | 947.9 | |
| 20260510205736 | 13 | 0.0 | 0.0 | 0.00 | 0.00 | 0.00 | 65 | 947.9 | |
| 20260510205436 | 13 | 0.0 | 0.0 | 0.00 | 0.00 | 0.00 | 63 | 947.0 | |
| 20260510205136 | 13 | 0.0 | 0.0 | 0.00 | 0.00 | 0.00 | 63 | 947.0 | |
| 20260510204835 | 13 | 0.0 | 0.0 | 0.00 | 0.00 | 0.00 | 63 | 947.0 | |
| 20260510204536 | 13 | 0.0 | 0.0 | 0.00 | 0.00 | 0.00 | 63 | 947.0 | |
| 20260510204235 | 13 | 0.0 | 0.0 | 0.00 | 0.00 | 0.00 | 63 | 947.0 | |
| 20260510203935 | 13 | 0.0 | 0.0 | 0.00 | 0.00 | 0.00 | 63 | 947.0 | |
| 20260510203636 | 13 | 0.0 | 0.0 | 0.00 | 0.00 | 0.00 | 63 | 947.0 | |
| 20260510203336 | 13 | 0.0 | 0.0 | 0.00 | 0.00 | 0.00 | 62 | 947.0 | |
| 20260510203036 | 13 | 0.0 | 0.0 | 0.00 | 0.00 | 0.00 | 62 | 947.0 | |
| 20260510202736 | 13 | 0.0 | 0.0 | 0.00 | 0.00 | 0.00 | 62 | 947.0 | |
| 20260510202435 | 13 | 0.0 | 0.0 | 0.00 | 0.00 | 0.00 | 62 | 947.0 | |
| 20260510202135 | 13 | 0.0 | 0.0 | 0.00 | 0.00 | 0.00 | 62 | 947.0 | |
| 20260510201836 | 13 | 0.0 | 0.0 | 0.00 | 0.00 | 0.00 | 62 | 947.0 | |
| 20260510201535 | 13 | 0.0 | 0.0 | 0.00 | 0.00 | 0.00 | 62 | 947.1 | |
| 20260510201236 | 13 | 0.0 | 0.0 | 0.00 | 0.00 | 0.00 | 62 | 947.1 | |
| 20260510200935 | 13 | 0.0 | 0.0 | 0.00 | 0.00 | 0.00 | 62 | 947.1 | |
| 20260510200336 | 13 | 0.0 | 0.0 | 0.00 | 0.00 | 0.00 | 62 | 947.1 | |
| 20260510195435 | 14 | 0.0 | 0.0 | 0.00 | 0.00 | 0.00 | 61 | 946.0 | |
| 20260510195136 | 14 | 0.0 | 0.0 | 0.00 | 0.00 | 0.00 | 59 | 946.0 | |
| 20260510194835 | 14 | 0.0 | 0.0 | 0.00 | 0.00 | 0.00 | 59 | 946.0 | |
| 20260510194535 | 14 | 0.0 | 0.0 | 0.00 | 0.00 | 0.00 | 59 | 946.0 | |
| 20260510194236 | 14 | 0.0 | 0.0 | 0.00 | 0.00 | 0.00 | 59 | 946.0 | |
| 20260510193935 | 14 | 0.0 | 0.0 | 0.00 | 0.00 | 0.00 | 59 | 946.0 | |
| 20260510193635 | 14 | 0.0 | 0.0 | 0.00 | 0.00 | 0.00 | 59 | 946.0 | |
| 20260510193335 | 14 | 0.0 | 0.0 | 0.00 | 0.00 | 0.00 | 59 | 946.0 | |
| 20260510193036 | 14 | 0.0 | 0.0 | 0.00 | 0.00 | 0.00 | 59 | 946.0 | |
| 20260510192736 | 15 | 0.0 | 0.0 | 0.00 | 0.00 | 0.00 | 58 | 946.0 | |
| 20260510192435 | 15 | 0.0 | 0.0 | 0.00 | 0.00 | 0.00 | 58 | 946.0 | |
| 20260510192135 | 15 | 0.0 | 0.0 | 0.00 | 0.00 | 0.00 | 58 | 946.0 | |
| 20260510191536 | 15 | 0.0 | 0.0 | 0.00 | 0.00 | 0.00 | 58 | 946.0 | |
| 20260510191236 | 15 | 0.0 | 0.0 | 0.00 | 0.00 | 0.00 | 58 | 946.6 | |
| 20260510190636 | 15 | 0.0 | 0.0 | 0.00 | 0.00 | 0.00 | 56 | 946.0 | |
| 20260510190035 | 15 | 0.0 | 0.0 | 0.00 | 0.00 | 0.00 | 56 | 946.0 | |
| 20260510185736 | 15 | 0.0 | 0.0 | 0.00 | 0.00 | 0.00 | 56 | 946.0 | |
| 20260510185435 | 16 | 0.0 | 0.0 | 0.00 | 0.00 | 0.00 | 53 | 946.0 | |
| 20260510184836 | 16 | 0.0 | 0.0 | 0.00 | 0.00 | 0.00 | 53 | 946.0 | |
| 20260510183936 | 16 | 0.0 | 0.0 | 0.00 | 0.00 | 0.00 | 51 | 946.0 | |
| 20260510183336 | 16 | 0.0 | 0.0 | 0.00 | 0.00 | 0.00 | 51 | 946.0 | |
| 20260510183035 | 16 | 0.0 | 0.0 | 0.00 | 0.00 | 0.00 | 51 | 946.0 | |
| 20260510182736 | 16 | 0.0 | 0.0 | 0.00 | 0.00 | 0.00 | 53 | 946.0 | |
| 20260510182436 | 16 | 0.0 | 0.0 | 0.00 | 0.00 | 0.00 | 53 | 946.0 | |
| 20260510182136 | 16 | 0.0 | 0.0 | 0.00 | 0.00 | 0.00 | 53 | 946.0 | |
| 20260510181836 | 16 | 0.0 | 0.0 | 0.00 | 0.00 | 0.00 | 53 | 946.0 | |
| 20260510181236 | 15 | 0.0 | 0.0 | 0.00 | 0.00 | 0.00 | 53 | 946.0 | |
| 20260510180635 | 15 | 0.0 | 0.0 | 0.00 | 0.00 | 0.00 | 54 | 945.0 | |
| 20260510180335 | 15 | 0.0 | 0.0 | 0.00 | 0.00 | 0.00 | 54 | 945.0 | |
| 20260510175736 | 15 | 0.0 | 0.0 | 0.00 | 0.00 | 0.00 | 54 | 945.0 | |
| 20260510175436 | 15 | 0.0 | 0.0 | 0.00 | 0.00 | 0.00 | 54 | 945.0 | |
| 20260510175136 | 15 | 0.0 | 0.0 | 0.00 | 0.00 | 0.00 | 54 | 945.0 | |
| 20260510174836 | 16 | 0.0 | 0.0 | 0.00 | 0.00 | 0.00 | 52 | 945.7 | |
| 20260510174236 | 16 | 0.0 | 0.0 | 0.00 | 0.00 | 0.00 | 52 | 945.7 | |
| 20260510173936 | 16 | 0.0 | 0.0 | 0.00 | 0.00 | 0.00 | 52 | 945.7 | |
| 20260510173635 | 16 | 0.0 | 0.0 | 0.00 | 0.00 | 0.00 | 52 | 945.7 | |
| 20260510173335 | 16 | 0.0 | 0.0 | 0.00 | 0.00 | 0.00 | 52 | 945.7 | |
| 20260510173036 | 16 | 0.0 | 0.0 | 0.00 | 0.00 | 0.00 | 52 | 945.7 | |
| 20260510172736 | 16 | 0.0 | 0.0 | 0.00 | 0.00 | 0.00 | 52 | 945.7 | |
| 20260510172435 | 16 | 0.0 | 0.0 | 0.00 | 0.00 | 0.00 | 52 | 945.7 | |
| 20260510172135 | 16 | 0.0 | 0.0 | 0.00 | 0.00 | 0.00 | 52 | 945.7 | |
| 20260510171836 | 16 | 0.0 | 0.0 | 0.00 | 0.00 | 0.00 | 53 | 945.0 | |
| 20260510171535 | 16 | 0.0 | 0.0 | 0.00 | 0.00 | 0.00 | 53 | 945.0 | |
| 20260510170936 | 15 | 0.0 | 0.0 | 0.00 | 0.00 | 0.00 | 52 | 945.0 | |
| 20260510170336 | 15 | 0.0 | 0.0 | 0.00 | 0.00 | 0.00 | 52 | 945.0 | |
| 20260510170035 | 15 | 0.0 | 0.0 | 0.00 | 0.00 | 0.00 | 52 | 945.0 | |
| 20260510165735 | 15 | 0.0 | 0.0 | 0.00 | 0.00 | 0.00 | 52 | 945.0 | |
| 20260510165135 | 15 | 0.0 | 0.0 | 0.00 | 0.00 | 0.00 | 52 | 945.0 | |
| 20260510164835 | 15 | 0.0 | 0.0 | 0.00 | 0.00 | 0.00 | 52 | 945.0 | |
| 20260510164536 | 15 | 0.0 | 0.0 | 0.00 | 0.00 | 0.00 | 52 | 945.0 | |
| 20260510164236 | 15 | 0.0 | 0.0 | 0.00 | 0.00 | 0.00 | 52 | 945.0 | |
| 20260510163936 | 15 | 0.0 | 0.0 | 0.00 | 0.00 | 0.00 | 52 | 945.0 | |
| 20260510163635 | 15 | 0.0 | 0.0 | 0.00 | 0.00 | 0.00 | 56 | 945.7 | |
| 20260510163336 | 15 | 0.0 | 0.0 | 0.00 | 0.00 | 0.00 | 56 | 945.7 | |
| 20260510163036 | 15 | 0.0 | 0.0 | 0.00 | 0.00 | 0.00 | 56 | 945.7 | |
| 20260510162735 | 15 | 0.0 | 0.0 | 0.00 | 0.00 | 0.00 | 56 | 945.7 | |
| 20260510162435 | 15 | 0.0 | 0.0 | 0.00 | 0.00 | 0.00 | 56 | 945.7 | |
| 20260510162136 | 15 | 0.0 | 0.0 | 0.00 | 0.00 | 0.00 | 56 | 945.7 | |
| 20260510161836 | 16 | 0.0 | 0.0 | 0.00 | 0.00 | 0.00 | 54 | 945.0 | |
| 20260510161536 | 16 | 0.0 | 0.0 | 0.00 | 0.00 | 0.00 | 54 | 945.0 | |
| 20260510161236 | 16 | 0.0 | 0.0 | 0.00 | 0.00 | 0.00 | 54 | 945.0 | |
| 20260510160935 | 16 | 0.0 | 0.0 | 0.00 | 0.00 | 0.00 | 54 | 945.0 | |
| 20260510160336 | 16 | 0.0 | 0.0 | 0.00 | 0.00 | 0.00 | 54 | 945.0 | |
| 20260510160036 | 16 | 0.0 | 0.0 | 0.00 | 0.00 | 0.00 | 54 | 945.0 | |
| 20260510154836 | 16 | 0.0 | 0.0 | 0.00 | 0.00 | 0.00 | 54 | 945.0 | |
| 20260510154536 | 16 | 0.0 | 0.0 | 0.00 | 0.00 | 0.00 | 55 | 945.0 | |
| 20260510154235 | 16 | 0.0 | 0.0 | 0.00 | 0.00 | 0.00 | 55 | 945.0 | |
| 20260510153935 | 16 | 0.0 | 0.0 | 0.00 | 0.00 | 0.00 | 55 | 945.0 | |
| 20260510153636 | 16 | 0.0 | 0.0 | 0.00 | 0.00 | 0.00 | 56 | 945.4 | |
| 20260510153336 | 16 | 0.0 | 0.0 | 0.00 | 0.00 | 0.00 | 56 | 945.4 | |
| 20260510153035 | 16 | 0.0 | 0.0 | 0.00 | 0.00 | 0.00 | 56 | 945.4 | |
| 20260510152735 | 16 | 0.0 | 0.0 | 0.00 | 0.00 | 0.00 | 56 | 945.4 | |
| 20260510152435 | 16 | 0.0 | 0.0 | 0.00 | 0.00 | 0.00 | 56 | 945.0 | |
| 20260510152136 | 16 | 0.0 | 0.0 | 0.00 | 0.00 | 0.00 | 57 | 945.0 | |
| 20260510151836 | 16 | 0.0 | 0.0 | 0.00 | 0.00 | 0.00 | 57 | 945.0 | |
| 20260510151536 | 16 | 0.0 | 0.0 | 0.00 | 0.00 | 0.00 | 57 | 945.0 | |
| 20260510151235 | 17 | 0.0 | 0.0 | 0.00 | 0.00 | 0.00 | 55 | 945.0 | |
| 20260510150936 | 17 | 0.0 | 0.0 | 0.00 | 0.00 | 0.00 | 55 | 945.0 | |
| 20260510150636 | 17 | 0.0 | 0.0 | 0.00 | 0.00 | 0.00 | 55 | 945.0 | |
| 20260510150338 | 17 | 0.0 | 0.0 | 0.00 | 0.00 | 0.00 | 55 | 945.0 | |
| 20260510150036 | 17 | 0.0 | 0.0 | 0.00 | 0.00 | 0.00 | 54 | 945.0 | |
| 20260510145736 | 17 | 0.0 | 0.0 | 0.00 | 0.00 | 0.00 | 54 | 945.0 | |
| 20260510145136 | 17 | 0.0 | 0.0 | 0.00 | 0.00 | 0.00 | 54 | 945.0 | |
| 20260510144836 | 17 | 0.0 | 0.0 | 0.00 | 0.00 | 0.00 | 54 | 945.0 | |
| 20260510144235 | 18 | 0.0 | 0.0 | 0.00 | 0.00 | 0.00 | 52 | 945.4 | |
| 20260510143036 | 18 | 0.0 | 0.0 | 0.00 | 0.00 | 0.00 | 52 | 945.0 | |
| 20260510142436 | 17 | 0.0 | 0.0 | 0.00 | 0.00 | 0.00 | 51 | 945.0 | |
| 20260510141836 | 17 | 0.0 | 0.0 | 0.00 | 0.00 | 0.00 | 54 | 945.0 | |
| 20260510141536 | 17 | 0.0 | 0.0 | 0.00 | 0.00 | 0.00 | 54 | 945.0 | |
| 20260510141235 | 17 | 0.0 | 0.0 | 0.00 | 0.00 | 0.00 | 54 | 945.0 | |
| 20260510140636 | 17 | 0.0 | 0.0 | 0.00 | 0.00 | 0.00 | 54 | 945.0 | |
| 20260510140335 | 17 | 0.0 | 0.0 | 0.00 | 0.00 | 0.00 | 54 | 945.0 | |
| 20260510140036 | 17 | 0.0 | 0.0 | 0.00 | 0.00 | 0.00 | 54 | 945.0 | |
| 20260510135735 | 17 | 0.0 | 0.0 | 0.00 | 0.00 | 0.00 | 54 | 945.8 | |
| 20260510135436 | 17 | 0.0 | 0.0 | 0.00 | 0.00 | 0.00 | 54 | 945.8 | |
| 20260510134836 | 17 | 0.0 | 0.0 | 0.00 | 0.00 | 0.00 | 54 | 945.8 | |
| 20260510134535 | 17 | 0.0 | 0.0 | 0.00 | 0.00 | 0.00 | 54 | 945.8 | |
| 20260510134236 | 17 | 0.0 | 0.0 | 0.00 | 0.00 | 0.00 | 54 | 945.8 | |
| 20260510133935 | 17 | 0.0 | 0.0 | 0.00 | 0.00 | 0.00 | 54 | 945.8 | |
| 20260510133636 | 17 | 0.0 | 0.0 | 0.00 | 0.00 | 0.00 | 54 | 945.8 | |
| 20260510133335 | 17 | 0.0 | 0.0 | 0.00 | 0.00 | 0.00 | 52 | 945.0 | |
| 20260510133036 | 17 | 0.0 | 0.0 | 0.00 | 0.00 | 0.00 | 52 | 945.0 | |
| 20260510132736 | 17 | 0.0 | 0.0 | 0.00 | 0.00 | 0.00 | 52 | 945.0 | |
| 20260510132436 | 18 | 0.0 | 0.0 | 0.00 | 0.00 | 0.00 | 51 | 945.0 | |
| 20260510132135 | 18 | 0.0 | 0.0 | 0.00 | 0.00 | 0.00 | 51 | 945.0 | |
| 20260510131835 | 18 | 0.0 | 0.0 | 0.00 | 0.00 | 0.00 | 54 | 945.0 | |
| 20260510131236 | 18 | 0.0 | 0.0 | 0.00 | 0.00 | 0.00 | 54 | 945.0 | |
| 20260510130936 | 18 | 0.0 | 0.0 | 0.00 | 0.00 | 0.00 | 54 | 945.0 | |
| 20260510130636 | 18 | 0.0 | 0.0 | 0.00 | 0.00 | 0.00 | 54 | 945.0 | |
| 20260510130336 | 18 | 0.0 | 0.0 | 0.00 | 0.00 | 0.00 | 54 | 945.0 | |
| 20260510130036 | 18 | 0.0 | 0.0 | 0.00 | 0.00 | 0.00 | 54 | 945.0 | |
| 20260510125735 | 18 | 0.0 | 0.0 | 0.00 | 0.00 | 0.00 | 54 | 946.0 | |
| 20260510125436 | 17 | 0.0 | 0.0 | 0.00 | 0.00 | 0.00 | 55 | 946.0 | |
| 20260510125136 | 17 | 0.0 | 0.0 | 0.00 | 0.00 | 0.00 | 55 | 946.0 | |
| 20260510124835 | 17 | 0.0 | 0.0 | 0.00 | 0.00 | 0.00 | 55 | 946.0 | |
| 20260510124536 | 18 | 0.0 | 0.0 | 0.00 | 0.00 | 0.00 | 56 | 946.0 | |
| 20260510124235 | 18 | 0.0 | 0.0 | 0.00 | 0.00 | 0.00 | 56 | 946.0 | |
| 20260510123936 | 18 | 0.0 | 0.0 | 0.00 | 0.00 | 0.00 | 56 | 946.0 | |
| 20260510123636 | 17 | 0.0 | 0.0 | 0.00 | 0.00 | 0.00 | 55 | 946.0 | |
| 20260510123336 | 17 | 0.0 | 0.0 | 0.00 | 0.00 | 0.00 | 55 | 946.0 | |
| 20260510123036 | 17 | 0.0 | 0.0 | 0.00 | 0.00 | 0.00 | 57 | 946.0 | |
| 20260510122736 | 17 | 0.0 | 0.0 | 0.00 | 0.00 | 0.00 | 57 | 946.0 | |
| 20260510122136 | 17 | 0.0 | 0.0 | 0.00 | 0.00 | 0.00 | 58 | 946.0 | |
| 20260510121836 | 17 | 0.0 | 0.0 | 0.00 | 0.00 | 0.00 | 58 | 946.0 | |
| 20260510121536 | 17 | 0.0 | 0.0 | 0.00 | 0.00 | 0.00 | 58 | 946.0 | |
| 20260510121235 | 17 | 0.0 | 0.0 | 0.00 | 0.00 | 0.00 | 58 | 946.0 | |
| 20260510120636 | 17 | 0.0 | 0.0 | 0.00 | 0.00 | 0.00 | 58 | 946.0 | |
| 20260510120336 | 17 | 0.0 | 0.0 | 0.00 | 0.00 | 0.00 | 58 | 946.0 | |
| 20260510120036 | 17 | 0.0 | 0.0 | 0.00 | 0.00 | 0.00 | 58 | 946.0 | |
| 20260510115736 | 17 | 0.0 | 0.0 | 0.00 | 0.00 | 0.00 | 58 | 946.0 | |
| 20260510115135 | 16 | 0.0 | 0.0 | 0.00 | 0.00 | 0.00 | 59 | 946.0 | |
| 20260510114835 | 16 | 0.0 | 0.0 | 0.00 | 0.00 | 0.00 | 60 | 946.9 | |
| 20260510114536 | 16 | 0.0 | 0.0 | 0.00 | 0.00 | 0.00 | 60 | 946.9 | |
| 20260510114236 | 16 | 0.0 | 0.0 | 0.00 | 0.00 | 0.00 | 60 | 946.9 | |
| 20260510113935 | 16 | 0.0 | 0.0 | 0.00 | 0.00 | 0.00 | 59 | 946.0 | |
| 20260510113636 | 16 | 0.0 | 0.0 | 0.00 | 0.00 | 0.00 | 58 | 946.0 | |
| 20260510113336 | 17 | 0.0 | 0.0 | 0.00 | 0.00 | 0.00 | 57 | 946.0 | |
| 20260510113036 | 17 | 0.0 | 0.0 | 0.00 | 0.00 | 0.00 | 57 | 946.0 | |
| 20260510112736 | 17 | 0.0 | 0.0 | 0.00 | 0.00 | 0.00 | 57 | 946.0 | |
| 20260510112436 | 17 | 0.0 | 0.0 | 0.00 | 0.00 | 0.00 | 57 | 947.0 | |
| 20260510112136 | 16 | 0.0 | 0.0 | 0.00 | 0.00 | 0.00 | 59 | 947.0 | |
| 20260510111835 | 16 | 0.0 | 0.0 | 0.00 | 0.00 | 0.00 | 59 | 947.0 | |
| 20260510111536 | 16 | 0.0 | 0.0 | 0.00 | 0.00 | 0.00 | 59 | 947.0 | |
| 20260510111236 | 16 | 0.0 | 0.0 | 0.00 | 0.00 | 0.00 | 59 | 947.0 | |
| 20260510110936 | 16 | 0.0 | 0.0 | 0.00 | 0.00 | 0.00 | 61 | 947.0 | |
| 20260510110636 | 15 | 0.0 | 0.0 | 0.00 | 0.00 | 0.00 | 61 | 947.0 | |
| 20260510110336 | 15 | 0.0 | 0.0 | 0.00 | 0.00 | 0.00 | 61 | 947.0 | |
| 20260510110036 | 16 | 0.0 | 0.0 | 0.00 | 0.00 | 0.00 | 62 | 946.0 | |
| 20260510105736 | 16 | 0.0 | 0.0 | 0.00 | 0.00 | 0.00 | 62 | 946.0 | |
| 20260510105136 | 16 | 0.0 | 0.0 | 0.00 | 0.00 | 0.00 | 60 | 946.0 | |
| 20260510104836 | 16 | 0.0 | 0.0 | 0.00 | 0.00 | 0.00 | 60 | 946.0 | |
| 20260510104536 | 16 | 0.0 | 0.0 | 0.00 | 0.00 | 0.00 | 60 | 946.0 | |
| 20260510104235 | 16 | 0.0 | 0.0 | 0.00 | 0.00 | 0.00 | 61 | 946.9 | |
| 20260510103936 | 15 | 0.0 | 0.0 | 0.00 | 0.00 | 0.00 | 63 | 947.0 | |
| 20260510103635 | 15 | 0.0 | 0.0 | 0.00 | 0.00 | 0.00 | 63 | 947.0 | |
| 20260510103335 | 14 | 0.0 | 0.0 | 0.00 | 0.00 | 0.00 | 65 | 947.0 | |
| 20260510103036 | 14 | 0.0 | 0.0 | 0.00 | 0.00 | 0.00 | 65 | 947.0 | |
| 20260510102736 | 14 | 0.0 | 0.0 | 0.00 | 0.00 | 0.00 | 65 | 947.0 | |
| 20260510102435 | 14 | 0.0 | 0.0 | 0.00 | 0.00 | 0.00 | 65 | 947.0 | |
| 20260510102135 | 14 | 0.0 | 0.0 | 0.00 | 0.00 | 0.00 | 65 | 947.0 | |
| 20260510101835 | 14 | 0.0 | 0.0 | 0.00 | 0.00 | 0.00 | 65 | 947.0 | |
| 20260510101535 | 14 | 0.0 | 0.0 | 0.00 | 0.00 | 0.00 | 65 | 947.0 | |
| 20260510101235 | 15 | 0.0 | 0.0 | 0.00 | 0.00 | 0.00 | 66 | 947.0 | |
| 20260510100936 | 14 | 0.0 | 0.0 | 0.00 | 0.00 | 0.00 | 68 | 947.0 | |
| 20260510100335 | 12 | 0.0 | 0.0 | 0.00 | 0.00 | 0.00 | 73 | 948.0 | |
| 20260510100036 | 12 | 0.0 | 0.0 | 0.00 | 0.00 | 0.00 | 77 | 948.3 | |
| 20260510095735 | 12 | 0.0 | 0.0 | 0.00 | 0.00 | 0.00 | 77 | 948.3 | |
| 20260510095436 | 12 | 0.0 | 0.0 | 0.00 | 0.00 | 0.00 | 77 | 948.3 | |
| 20260510095135 | 12 | 0.0 | 0.0 | 0.00 | 0.00 | 0.00 | 77 | 948.3 | |
| 20260510094835 | 12 | 0.0 | 0.0 | 0.00 | 0.00 | 0.00 | 77 | 948.0 | |
| 20260510094536 | 12 | 0.0 | 0.0 | 0.00 | 0.00 | 0.00 | 77 | 948.0 | |
| 20260510094235 | 12 | 0.0 | 0.0 | 0.00 | 0.00 | 0.00 | 77 | 948.0 | |
| 20260510093936 | 12 | 0.0 | 0.0 | 0.00 | 0.00 | 0.00 | 77 | 948.0 | |
| 20260510093636 | 12 | 0.0 | 0.0 | 0.00 | 0.00 | 0.00 | 78 | 947.0 | |
| 20260510093336 | 12 | 0.0 | 0.0 | 0.00 | 0.00 | 0.00 | 78 | 947.0 | |
| 20260510093036 | 12 | 0.0 | 0.0 | 0.00 | 0.00 | 0.00 | 78 | 947.0 | |
| 20260510092736 | 12 | 0.0 | 0.0 | 0.00 | 0.00 | 0.00 | 78 | 947.0 | |
| 20260510092136 | 12 | 0.0 | 0.0 | 0.00 | 0.00 | 0.00 | 79 | 947.0 | |
| 20260510091536 | 12 | 0.0 | 0.0 | 0.00 | 0.00 | 0.00 | 79 | 947.0 | |
| 20260510091236 | 13 | 0.0 | 0.0 | 0.00 | 0.00 | 0.00 | 77 | 947.0 | |
| 20260510090936 | 13 | 0.0 | 0.0 | 0.00 | 0.00 | 0.00 | 75 | 947.0 | |
| 20260510090636 | 13 | 0.0 | 0.0 | 0.00 | 0.00 | 0.00 | 73 | 947.0 | |
| 20260510090336 | 14 | 0.0 | 0.0 | 0.00 | 0.00 | 0.00 | 71 | 946.0 | |
| 20260510085736 | 14 | 0.0 | 0.0 | 0.00 | 0.00 | 0.00 | 71 | 946.7 | |
| 20260510085436 | 14 | 0.0 | 0.0 | 0.00 | 0.00 | 0.00 | 71 | 946.7 | |
| 20260510085136 | 14 | 0.0 | 0.0 | 0.00 | 0.00 | 0.00 | 70 | 946.0 | |
| 20260510084836 | 14 | 0.0 | 0.0 | 0.00 | 0.00 | 0.00 | 70 | 946.0 | |
| 20260510084535 | 15 | 0.0 | 0.0 | 0.00 | 0.00 | 0.00 | 68 | 946.0 | |
| 20260510084235 | 15 | 0.0 | 0.0 | 0.00 | 0.00 | 0.00 | 68 | 946.0 | |
| 20260510083936 | 15 | 0.0 | 0.0 | 0.00 | 0.00 | 0.00 | 68 | 946.0 | |
| 20260510083635 | 15 | 0.0 | 0.0 | 0.00 | 0.00 | 0.00 | 68 | 946.0 | |
| 20260510083336 | 15 | 0.0 | 0.0 | 0.00 | 0.00 | 0.00 | 66 | 946.0 | |
| 20260510083035 | 15 | 0.0 | 0.0 | 0.00 | 0.00 | 0.00 | 66 | 946.0 | |
| 20260510082735 | 15 | 0.0 | 0.0 | 0.00 | 0.00 | 0.00 | 65 | 946.0 | |
| 20260510082436 | 15 | 0.0 | 0.0 | 0.00 | 0.00 | 0.00 | 65 | 946.0 | |
| 20260510082136 | 15 | 0.0 | 0.0 | 0.00 | 0.00 | 0.00 | 65 | 946.0 | |
| 20260510081835 | 16 | 0.0 | 0.0 | 0.00 | 0.00 | 0.00 | 63 | 946.0 | |
| 20260510081536 | 16 | 0.0 | 0.0 | 0.00 | 0.00 | 0.00 | 63 | 946.0 | |
| 20260510080935 | 16 | 0.0 | 0.0 | 0.00 | 0.00 | 0.00 | 61 | 946.0 | |
| 20260510080336 | 17 | 0.0 | 0.0 | 0.00 | 0.00 | 0.00 | 59 | 946.0 | |
| 20260510075436 | 20 | 0.0 | 0.0 | 0.00 | 0.00 | 0.00 | 53 | 945.7 | |
| 20260510074836 | 20 | 0.0 | 0.0 | 0.00 | 0.00 | 0.00 | 56 | 945.0 | |
| 20260510074236 | 17 | 0.0 | 0.0 | 0.00 | 0.00 | 0.00 | 60 | 945.0 | |
| 20260510073935 | 15 | 0.0 | 0.0 | 0.00 | 0.00 | 0.00 | 64 | 945.0 | |
| 20260510073636 | 15 | 0.0 | 0.0 | 0.00 | 0.00 | 0.00 | 64 | 946.0 | |
| 20260510073335 | 15 | 0.0 | 0.0 | 0.00 | 0.00 | 0.00 | 64 | 946.0 | |
| 20260510072436 | 15 | 0.0 | 0.0 | 0.00 | 0.00 | 0.00 | 64 | 946.0 | |
| 20260510072135 | 15 | 0.0 | 0.0 | 0.00 | 0.00 | 0.00 | 64 | 946.0 | |
| 20260510071836 | 15 | 0.0 | 0.0 | 0.00 | 0.00 | 0.00 | 64 | 946.0 | |
| 20260510071536 | 14 | 0.0 | 0.0 | 0.00 | 0.00 | 0.00 | 64 | 946.0 | |
| 20260510071236 | 14 | 0.0 | 0.0 | 0.00 | 0.00 | 0.00 | 64 | 946.0 | |
| 20260510070935 | 15 | 0.0 | 0.0 | 0.00 | 0.00 | 0.00 | 65 | 946.0 | |
| 20260510070636 | 15 | 0.0 | 0.0 | 0.00 | 0.00 | 0.00 | 65 | 946.0 | |
| 20260510070335 | 15 | 0.0 | 0.0 | 0.00 | 0.00 | 0.00 | 65 | 946.0 | |
| 20260510070036 | 15 | 0.0 | 0.0 | 0.00 | 0.00 | 0.00 | 65 | 946.0 | |
| 20260510065735 | 15 | 0.0 | 0.0 | 0.00 | 0.00 | 0.00 | 65 | 946.0 | |
| 20260510065436 | 15 | 0.0 | 0.0 | 0.00 | 0.00 | 0.00 | 65 | 946.1 | |
| 20260510065135 | 14 | 0.0 | 0.0 | 0.00 | 0.00 | 0.00 | 68 | 946.0 | |
| 20260510064836 | 14 | 0.0 | 0.0 | 0.00 | 0.00 | 0.00 | 68 | 946.0 | |
| 20260510064236 | 13 | 0.0 | 0.0 | 0.00 | 0.00 | 0.00 | 71 | 946.0 | |
| 20260510063936 | 13 | 0.0 | 0.0 | 0.00 | 0.00 | 0.00 | 71 | 946.0 | |
| 20260510063635 | 12 | 0.0 | 0.0 | 0.00 | 0.00 | 0.00 | 73 | 946.0 | |
| 20260510063336 | 12 | 0.0 | 0.0 | 0.00 | 0.00 | 0.00 | 74 | 946.0 | |
| 20260510063036 | 12 | 0.0 | 0.0 | 0.00 | 0.00 | 0.00 | 74 | 946.0 | |
| 20260510062735 | 12 | 0.0 | 0.0 | 0.00 | 0.00 | 0.00 | 74 | 946.0 | |
| 20260510062136 | 12 | 0.0 | 0.0 | 0.00 | 0.00 | 0.00 | 74 | 946.0 | |
| 20260510061836 | 12 | 0.0 | 0.0 | 0.00 | 0.00 | 0.00 | 74 | 946.0 | |
| 20260510061535 | 12 | 0.0 | 0.0 | 0.00 | 0.00 | 0.00 | 74 | 946.0 | |
| 20260510061236 | 12 | 0.0 | 0.0 | 0.00 | 0.00 | 0.00 | 74 | 946.0 | |
| 20260510060935 | 12 | 0.0 | 0.0 | 0.00 | 0.00 | 0.00 | 74 | 946.0 | |
| 20260510060635 | 12 | 0.0 | 0.0 | 0.00 | 0.00 | 0.00 | 75 | 946.5 | |
| 20260510055735 | 12 | 0.0 | 0.0 | 0.00 | 0.00 | 0.00 | 75 | 946.5 | |
| 20260510055436 | 11 | 0.0 | 0.0 | 0.00 | 0.00 | 0.00 | 77 | 946.5 | |
| 20260510055136 | 11 | 0.0 | 0.0 | 0.00 | 0.00 | 0.00 | 77 | 946.5 | |
| 20260510054836 | 11 | 0.0 | 0.0 | 0.00 | 0.00 | 0.00 | 77 | 946.5 | |
| 20260510054535 | 11 | 0.0 | 0.0 | 0.00 | 0.00 | 0.00 | 77 | 946.5 | |
| 20260510053936 | 11 | 0.0 | 0.0 | 0.00 | 0.00 | 0.00 | 77 | 946.5 | |
| 20260510053635 | 11 | 0.0 | 0.0 | 0.00 | 0.00 | 0.00 | 77 | 946.5 | |
| 20260510053336 | 11 | 0.0 | 0.0 | 0.00 | 0.00 | 0.00 | 77 | 946.5 | |
| 20260510053036 | 11 | 0.0 | 0.0 | 0.00 | 0.00 | 0.00 | 77 | 946.5 | |
| 20260510052735 | 11 | 0.0 | 0.0 | 0.00 | 0.00 | 0.00 | 77 | 946.5 | |
| 20260510052436 | 11 | 0.0 | 0.0 | 0.00 | 0.00 | 0.00 | 77 | 946.5 | |
| 20260510052135 | 11 | 0.0 | 0.0 | 0.00 | 0.00 | 0.00 | 77 | 946.5 | |
| 20260510051836 | 11 | 0.0 | 0.0 | 0.00 | 0.00 | 0.00 | 77 | 946.5 | |
| 20260510051536 | 11 | 0.0 | 0.0 | 0.00 | 0.00 | 0.00 | 77 | 946.5 | |
| 20260510050935 | 11 | 0.0 | 0.0 | 0.00 | 0.00 | 0.00 | 77 | 946.5 | |
| 20260510050036 | 11 | 0.0 | 0.0 | 0.00 | 0.00 | 0.00 | 77 | 946.5 | |
| 20260510045736 | 11 | 0.0 | 0.0 | 0.00 | 0.00 | 0.00 | 77 | 946.5 | |
| 20260510045435 | 11 | 0.0 | 0.0 | 0.00 | 0.00 | 0.00 | 77 | 946.0 | |
| 20260510045135 | 11 | 0.0 | 0.0 | 0.00 | 0.00 | 0.00 | 77 | 946.0 | |
| 20260510044835 | 11 | 0.0 | 0.0 | 0.00 | 0.00 | 0.00 | 77 | 946.0 | |
| 20260510044536 | 11 | 0.0 | 0.0 | 0.00 | 0.00 | 0.00 | 77 | 946.0 | |
| 20260510044236 | 11 | 0.0 | 0.0 | 0.00 | 0.00 | 0.00 | 77 | 946.0 | |
| 20260510043936 | 11 | 0.0 | 0.0 | 0.00 | 0.00 | 0.00 | 77 | 946.0 | |
| 20260510043635 | 11 | 0.0 | 0.0 | 0.00 | 0.00 | 0.00 | 77 | 946.0 | |
| 20260510043335 | 11 | 0.0 | 0.0 | 0.00 | 0.00 | 0.00 | 77 | 946.0 | |
| 20260510043036 | 11 | 0.0 | 0.0 | 0.00 | 0.00 | 0.00 | 77 | 946.0 | |
| 20260510042736 | 11 | 0.0 | 0.0 | 0.00 | 0.00 | 0.00 | 77 | 946.0 | |
| 20260510042136 | 11 | 0.0 | 0.0 | 0.00 | 0.00 | 0.00 | 77 | 946.6 | |
| 20260510041836 | 11 | 0.0 | 0.0 | 0.00 | 0.00 | 0.00 | 77 | 946.6 | |
| 20260510041536 | 11 | 0.0 | 0.0 | 0.00 | 0.00 | 0.00 | 77 | 946.6 | |
| 20260510041236 | 11 | 0.0 | 0.0 | 0.00 | 0.00 | 0.00 | 77 | 946.6 | |
| 20260510040936 | 11 | 0.0 | 0.0 | 0.00 | 0.00 | 0.00 | 77 | 946.6 | |
| 20260510040636 | 11 | 0.0 | 0.0 | 0.00 | 0.00 | 0.00 | 77 | 946.6 | |
| 20260510040336 | 11 | 0.0 | 0.0 | 0.00 | 0.00 | 0.00 | 77 | 946.6 | |
| 20260510040036 | 11 | 0.0 | 0.0 | 0.00 | 0.00 | 0.00 | 76 | 946.0 | |
| 20260510035436 | 11 | 0.0 | 0.0 | 0.00 | 0.00 | 0.00 | 76 | 946.0 | |
| 20260510035136 | 11 | 0.0 | 0.0 | 0.00 | 0.00 | 0.00 | 76 | 946.0 | |
| 20260510034536 | 11 | 0.0 | 0.0 | 0.00 | 0.00 | 0.00 | 77 | 946.9 | |
| 20260510034236 | 11 | 0.0 | 0.0 | 0.00 | 0.00 | 0.00 | 77 | 946.9 | |
| 20260510033636 | 11 | 0.0 | 0.0 | 0.00 | 0.00 | 0.00 | 77 | 946.9 | |
| 20260510033335 | 11 | 0.0 | 0.0 | 0.00 | 0.00 | 0.00 | 77 | 946.9 | |
| 20260510033035 | 11 | 0.0 | 0.0 | 0.00 | 0.00 | 0.00 | 77 | 946.9 | |
| 20260510032435 | 11 | 0.0 | 0.0 | 0.00 | 0.00 | 0.00 | 77 | 946.9 | |
| 20260510032136 | 11 | 0.0 | 0.0 | 0.00 | 0.00 | 0.00 | 77 | 946.9 | |
| 20260510031836 | 11 | 0.0 | 0.0 | 0.00 | 0.00 | 0.00 | 77 | 946.9 | |
| 20260510031535 | 11 | 0.0 | 0.0 | 0.00 | 0.00 | 0.00 | 77 | 946.9 | |
| 20260510030936 | 11 | 0.0 | 0.0 | 0.00 | 0.00 | 0.00 | 77 | 946.9 | |
| 20260510030635 | 11 | 0.0 | 0.0 | 0.00 | 0.00 | 0.00 | 77 | 947.0 | |
| 20260510030336 | 11 | 0.0 | 0.0 | 0.00 | 0.00 | 0.00 | 77 | 947.0 | |
| 20260510030036 | 11 | 0.0 | 0.0 | 0.00 | 0.00 | 0.00 | 77 | 947.0 | |
| 20260510025736 | 11 | 0.0 | 0.0 | 0.00 | 0.00 | 0.00 | 77 | 947.0 | |
| 20260510025136 | 12 | 0.0 | 0.0 | 0.00 | 0.00 | 0.00 | 77 | 947.0 | |
| 20260510024836 | 12 | 0.0 | 0.0 | 0.00 | 0.00 | 0.00 | 77 | 947.0 | |
| 20260510024236 | 12 | 0.0 | 0.0 | 0.00 | 0.00 | 0.00 | 77 | 947.0 | |
| 20260510023635 | 12 | 0.0 | 0.0 | 0.00 | 0.00 | 0.00 | 77 | 947.0 | |
| 20260510023335 | 12 | 0.0 | 0.0 | 0.00 | 0.00 | 0.00 | 77 | 947.0 | |
| 20260510022736 | 12 | 0.0 | 0.0 | 0.00 | 0.00 | 0.00 | 77 | 947.0 | |
| 20260510022135 | 12 | 0.0 | 0.0 | 0.00 | 0.00 | 0.00 | 77 | 947.0 | |
| 20260510021904 | 12 | 0.0 | 0.0 | 0.00 | 0.00 | 0.00 | 77 | 947.0 | |
| 20260510021544 | 12 | 0.0 | 0.0 | 0.00 | 0.00 | 0.00 | 78 | 947.0 | |
| 20260510021235 | 12 | 0.0 | 0.0 | 0.00 | 0.00 | 0.00 | 78 | 947.0 | |
| 20260510020936 | 12 | 0.0 | 0.0 | 0.00 | 0.00 | 0.00 | 78 | 947.0 | |
| 20260510020636 | 12 | 0.0 | 0.0 | 0.00 | 0.00 | 0.00 | 78 | 947.0 | |
| 20260510020336 | 12 | 0.0 | 0.0 | 0.00 | 0.00 | 0.00 | 78 | 947.0 | |
| 20260510020035 | 12 | 0.0 | 0.0 | 0.00 | 0.00 | 0.00 | 78 | 947.0 | |
| 20260510015735 | 12 | 0.0 | 0.0 | 0.00 | 0.00 | 0.00 | 78 | 947.0 | |
| 20260510014836 | 12 | 0.0 | 0.0 | 0.00 | 0.00 | 0.00 | 78 | 947.0 | |
| 20260510014236 | 12 | 0.0 | 0.0 | 0.00 | 0.00 | 0.00 | 78 | 947.0 | |
| 20260510013935 | 12 | 0.0 | 0.0 | 0.00 | 0.00 | 0.00 | 77 | 947.1 | |
| 20260510013636 | 12 | 0.0 | 0.0 | 0.00 | 0.00 | 0.00 | 77 | 947.1 | |
| 20260510013335 | 12 | 0.0 | 0.0 | 0.00 | 0.00 | 0.00 | 77 | 947.1 | |
| 20260510013036 | 12 | 0.0 | 0.0 | 0.00 | 0.00 | 0.00 | 77 | 947.1 | |
| 20260510012735 | 12 | 0.0 | 0.0 | 0.00 | 0.00 | 0.00 | 77 | 947.1 | |
| 20260510012435 | 12 | 0.0 | 0.0 | 0.00 | 0.00 | 0.00 | 77 | 947.1 | |
| 20260510012136 | 12 | 0.0 | 0.0 | 0.00 | 0.00 | 0.00 | 77 | 947.1 | |
| 20260510011835 | 12 | 0.0 | 0.0 | 0.00 | 0.00 | 0.00 | 78 | 947.0 | |
| 20260510011536 | 12 | 0.0 | 0.0 | 0.00 | 0.00 | 0.00 | 78 | 947.0 | |
| 20260510011236 | 12 | 0.0 | 0.0 | 0.00 | 0.00 | 0.00 | 78 | 947.0 | |
| 20260510010935 | 12 | 0.0 | 0.0 | 0.00 | 0.00 | 0.00 | 78 | 947.0 | |
| 20260510010636 | 12 | 0.0 | 0.0 | 0.00 | 0.00 | 0.00 | 78 | 947.0 | |
| 20260510010335 | 12 | 0.0 | 0.0 | 0.00 | 0.00 | 0.00 | 78 | 947.0 | |
| 20260510010036 | 12 | 0.0 | 0.0 | 0.00 | 0.00 | 0.00 | 78 | 947.0 | |
| 20260510005435 | 12 | 0.0 | 0.0 | 0.00 | 0.00 | 0.00 | 77 | 947.4 | |
| 20260510005136 | 12 | 0.0 | 0.0 | 0.00 | 0.00 | 0.00 | 77 | 947.4 | |
| 20260510004835 | 12 | 0.0 | 0.0 | 0.00 | 0.00 | 0.00 | 77 | 947.4 | |
| 20260510004535 | 12 | 0.0 | 0.0 | 0.00 | 0.00 | 0.00 | 77 | 947.4 | |
| 20260510004236 | 12 | 0.0 | 0.0 | 0.00 | 0.00 | 0.00 | 77 | 947.4 | |
| 20260510003936 | 12 | 0.0 | 0.0 | 0.00 | 0.00 | 0.00 | 77 | 947.4 | |
| 20260510003636 | 12 | 0.0 | 0.0 | 0.00 | 0.00 | 0.00 | 77 | 947.4 | |
| 20260510003335 | 12 | 0.0 | 0.0 | 0.00 | 0.00 | 0.00 | 77 | 947.4 | |
| 20260510003035 | 12 | 0.0 | 0.0 | 0.00 | 0.00 | 0.00 | 77 | 947.4 | |
| 20260510002736 | 12 | 0.0 | 0.0 | 0.00 | 0.00 | 0.00 | 77 | 947.0 | |
| 20260510002435 | 12 | 0.0 | 0.0 | 0.00 | 0.00 | 0.00 | 77 | 947.0 | |
| 20260510002135 | 12 | 0.0 | 0.0 | 0.00 | 0.00 | 0.00 | 77 | 947.0 | |
| 20260510001536 | 12 | 0.0 | 0.0 | 0.00 | 0.00 | 0.00 | 77 | 947.0 | |
| 20260510000936 | 12 | 0.0 | 0.0 | 0.00 | 0.00 | 0.00 | 75 | 947.3 | |
| 20260510000635 | 12 | 0.0 | 0.0 | 0.00 | 0.00 | 0.00 | 75 | 947.3 | |
| 20260510000336 | 12 | 0.0 | 0.0 | 0.00 | 0.00 | 0.00 | 75 | 947.3 | |
| 20260510000036 | 12 | 0.0 | 0.0 | 0.00 | 0.00 | 0.00 | 75 | 947.3 | |
| 20260509235736 | 12 | 0.0 | 0.0 | 0.00 | 0.00 | 0.00 | 75 | 947.3 | |
| 20260509235435 | 12 | 0.0 | 0.0 | 0.00 | 0.00 | 0.00 | 75 | 947.3 | |
| 20260509235135 | 12 | 0.0 | 0.0 | 0.00 | 0.00 | 0.00 | 75 | 947.3 | |
| 20260509234835 | 12 | 0.0 | 0.0 | 0.00 | 0.00 | 0.00 | 75 | 947.3 | |
| 20260509234535 | 12 | 0.0 | 0.0 | 0.00 | 0.00 | 0.00 | 75 | 947.3 | |
| 20260509234236 | 12 | 0.0 | 0.0 | 0.00 | 0.00 | 0.00 | 75 | 947.3 | |
| 20260509233936 | 12 | 0.0 | 0.0 | 0.00 | 0.00 | 0.00 | 75 | 947.3 | |
| 20260509233636 | 12 | 0.0 | 0.0 | 0.00 | 0.00 | 0.00 | 75 | 947.3 | |
| 20260509233335 | 12 | 0.0 | 0.0 | 0.00 | 0.00 | 0.00 | 75 | 947.3 | |
| 20260509233036 | 12 | 0.0 | 0.0 | 0.00 | 0.00 | 0.00 | 75 | 947.0 | |
| 20260509232736 | 12 | 0.0 | 0.0 | 0.00 | 0.00 | 0.00 | 75 | 947.0 | |
| 20260509232435 | 12 | 0.0 | 0.0 | 0.00 | 0.00 | 0.00 | 75 | 947.0 | |
| 20260509232136 | 13 | 0.0 | 0.0 | 0.00 | 0.00 | 0.00 | 71 | 947.0 | |
| 20260509231535 | 13 | 0.0 | 0.0 | 0.00 | 0.00 | 0.00 | 71 | 947.0 | |
| 20260509231235 | 13 | 0.0 | 0.0 | 0.00 | 0.00 | 0.00 | 71 | 947.0 | |
| 20260509230936 | 13 | 0.0 | 0.0 | 0.00 | 0.00 | 0.00 | 71 | 947.0 | |
| 20260509230636 | 13 | 0.0 | 0.0 | 0.00 | 0.00 | 0.00 | 71 | 947.0 | |
| 20260509230336 | 13 | 0.0 | 0.0 | 0.00 | 0.00 | 0.00 | 71 | 947.0 | |
| 20260509230035 | 13 | 0.0 | 0.0 | 0.00 | 0.00 | 0.00 | 69 | 947.1 | |
| 20260509225436 | 13 | 0.0 | 0.0 | 0.00 | 0.00 | 0.00 | 69 | 947.1 | |
| 20260509224836 | 13 | 0.0 | 0.0 | 0.00 | 0.00 | 0.00 | 69 | 947.1 | |
| 20260509224536 | 13 | 0.0 | 0.0 | 0.00 | 0.00 | 0.00 | 69 | 947.1 | |
| 20260509224236 | 13 | 0.0 | 0.0 | 0.00 | 0.00 | 0.00 | 69 | 947.1 | |
| 20260509223636 | 13 | 0.0 | 0.0 | 0.00 | 0.00 | 0.00 | 70 | 946.0 | |
| 20260509223336 | 13 | 0.0 | 0.0 | 0.00 | 0.00 | 0.00 | 70 | 946.0 | |
| 20260509222736 | 13 | 0.0 | 0.0 | 0.00 | 0.00 | 0.00 | 70 | 946.0 | |
| 20260509222436 | 13 | 0.0 | 0.0 | 0.00 | 0.00 | 0.00 | 70 | 946.0 | |
| 20260509222135 | 13 | 0.0 | 0.0 | 0.00 | 0.00 | 0.00 | 70 | 946.0 | |
| 20260509221536 | 13 | 0.0 | 0.0 | 0.00 | 0.00 | 0.00 | 70 | 946.0 |